Sarasota, FL

4:44 PM EST on December 15, 2019 (GMT -0500)
Sarasota-bradenton

Weather History for KSRQ - October, 2019

Change the Weather History Date:

Friday, October 18, 2019

  Actual Average Record
Temperature  
Mean Temperature 78 °F 76 °F  
Max Temperature 82 °F 85 °F 93 °F (1989)
Min Temperature 73 °F 67 °F 44 °F (1977)
Degree Days  
Heating Degree Days 0 0  
Month to date heating degree days 0 0  
Since 1 July heating degree days 0 0  
Cooling Degree Days 12 11  
Month to date cooling degree days 319 233  
Year to date cooling degree days 3776 3022  
Growing Degree Days 28 (Base 50)    
Moisture  
Dew Point 71 °F    
Average Humidity 79    
Maximum Humidity 91    
Minimum Humidity 67    
Precipitation  
Precipitation 0.33 in 0.10 in 2.10 in (1911)
Month to date precipitation 0.68 2.08  
Year to date precipitation 44.06 47.51  
Sea Level Pressure  
Sea Level Pressure 29.86 in    
Wind  
Wind Speed 6 mph ()    
Max Wind Speed 17 mph    
Max Gust Speed 23 mph    
Visibility 9.8 miles    
Events Rain    
T = Trace of Precipitation, MM = Missing Value Source: Averaged Metar Reports

Daily Weather History Graph

Daily Weather History Graph

Search for Another Location

Airport or City:

Astronomy

Oct. 18, 2019 Rise Set
Actual Time 7:31 AM EDT 6:58 PM EDT
Civil Twilight 7:08 AM EDT 7:22 PM EDT
Nautical Twilight 6:40 AM EDT 7:49 PM EDT
Astronomical Twilight 6:13 AM EDT 8:16 PM EDT
Moon 10:34 PM EDT (10/18) 11:44 AM EDT (10/18)
Length of Visible Light 12h 14m
Length of Day
11h 26m
Waning Gibbous, 79% of the Moon is Illuminated
Oct 18
Waning Gibbous
Oct 21
Last Quarter
Oct 27
New
Nov 4
First Quarter
Nov 12
Full

Hourly Weather History & Observations

Time (EDT) Temp. Heat Index Dew Point Humidity Pressure Visibility Wind Dir Wind Speed Gust Speed Precip Events Conditions
12:53 AM 78.1 °F - 70.0 °F 76% 29.93 in 10.0 mi Calm Calm - N/A   Overcast
2:53 AM 75.9 °F - 66.9 °F 74% 29.88 in 10.0 mi ENE 5.8 mph - N/A   Clear
3:53 AM 75.0 °F - 66.0 °F 73% 29.87 in 10.0 mi ENE 5.8 mph - N/A   Clear
4:53 AM 75.0 °F - 68.0 °F 79% 29.86 in 10.0 mi ENE 6.9 mph - N/A   Clear
5:53 AM 73.9 °F - 64.0 °F 71% 29.88 in 10.0 mi ENE 6.9 mph - N/A   Partly Cloudy
6:53 AM 73.0 °F - 64.9 °F 76% 29.89 in 10.0 mi East 6.9 mph - N/A   Clear
7:53 AM 73.9 °F - 68.0 °F 82% 29.90 in 10.0 mi East 5.8 mph - N/A   Clear
8:53 AM 75.0 °F - 68.0 °F 79% 29.90 in 10.0 mi East 6.9 mph - N/A   Clear
9:53 AM 77.0 °F - 66.9 °F 71% 29.91 in 10.0 mi East 6.9 mph - N/A   Mostly Cloudy
10:53 AM 79.0 °F - 68.0 °F 69% 29.91 in 10.0 mi East 9.2 mph - N/A   Mostly Cloudy
11:53 AM 81.0 °F 84.1 °F 69.1 °F 67% 29.91 in 10.0 mi East 9.2 mph - N/A   Overcast
12:53 PM 81.0 °F 84.4 °F 70.0 °F 69% 29.90 in 10.0 mi East 8.1 mph - N/A   Partly Cloudy
2:53 PM 81.0 °F 84.9 °F 71.1 °F 72% 29.83 in 10.0 mi East 11.5 mph - N/A   Scattered Clouds
3:53 PM 81.0 °F 85.8 °F 73.0 °F 77% 29.83 in 10.0 mi East 8.1 mph - 0.00 in   Overcast
4:53 PM 81.0 °F 85.8 °F 73.0 °F 77% 29.83 in 10.0 mi East 8.1 mph - N/A   Mostly Cloudy
5:53 PM 80.1 °F 84.5 °F 73.9 °F 81% 29.82 in 10.0 mi East 8.1 mph - 0.00 in Rain Light Rain
6:53 PM 79.0 °F - 73.9 °F 84% 29.83 in 10.0 mi East 8.1 mph - 0.02 in Rain Light Rain
7:53 PM 78.1 °F - 75.0 °F 90% 29.78 in 10.0 mi ESE 11.5 mph - 0.09 in Rain Light Rain
8:53 PM 79.0 °F - 75.0 °F 88% 29.81 in 7.0 mi SE 8.1 mph - 0.03 in Rain Rain
9:01 PM 79.0 °F - 75.9 °F 90% 29.82 in 7.0 mi SE 9.2 mph - 0.01 in Rain Light Rain
9:11 PM 79.0 °F - 75.0 °F 88% 29.83 in 10.0 mi SE 9.2 mph - 0.01 in Rain Light Rain
9:53 PM 79.0 °F - 75.0 °F 88% 29.83 in 10.0 mi SE 10.4 mph - 0.03 in Rain Light Rain
10:53 PM 79.0 °F - 75.0 °F 88% 29.82 in 10.0 mi SE 12.7 mph - 0.03 in Rain Light Rain
11:53 PM 78.1 °F - 75.0 °F 90% 29.82 in 10.0 mi ESE 9.2 mph - 0.03 in Rain Light Rain